Regional Weather Roundup
Issued by NWS

Home | Current Version | Previous Version | Text Only | Print | Product List | Glossary Off
Versions: 1 2 3 4 5 6 7 8 9 10 11 12 13 14 15 16 17 18 19 20 21 22 23 24 25 26 27

000
ASUS45 KSLC 230710
RWRUT

UTAH REGIONAL WEATHER ROUNDUP
NATIONAL WEATHER SERVICE SALT LAKE CITY UT
100 AM MDT WED APR 23 2014

UTZ001>011-023>025-230800-

NORTHERN UTAH

CITY           SKY/WX    TMP DP  RH WIND       PRES   REMARKS
HILL AFB       MIX PCPN  39  38  95 SW8       29.87S WCI  33
LOGAN          LGT RAIN  38  35  89 SE5       29.86S WCI  34
OGDEN          LGT RAIN  40  35  83 SW8       29.87R WCI  34
PROVO AIRPORT  MOCLDY    41  36  81 NW10      29.90R
SALT LAKE CITY CLOUDY    41  41 100 S5        29.88R
VERNAL         CLOUDY    54  29  38 W13G26    29.64R
WENDOVER       CLOUDY    45  23  42 N9G26     29.91S
HEBER CITY     CLOUDY    36  34  93 E8        29.86R WCI  29
WEST JORDAN    MOCLDY    37  37 100 S5        29.89S WCI  34

$$

UTZ012>022-026-027-230800-

SOUTHERN UTAH

CITY           SKY/WX    TMP DP  RH WIND       PRES   REMARKS
BRYCE CANYON   MOCLDY    41  18  39 NW17      29.88R
CEDAR CITY     CLEAR     41  17  38 CALM      29.90R
MILFORD        PTCLDY    42  28  57 N10       29.89R
MOAB/CYNLANDS  PTCLDY    67  19  16 W16       29.62R
PRICE          CLOUDY    46  27  47 NW16      29.76R
ST GEORGE      CLOUDY    64  12  13 W9        29.80R
KANAB            N/A     55   5  13 SW10      29.85R

$$

REGIONAL REPORTS     COLORADO/ARIZONA

CITY           SKY/WX    TMP DP  RH WIND       PRES   REMARKS
CRAIG, CO      LGT RAIN  52  38  58 SW22G52   29.73R
GRAND JUNCTION CLOUDY    67  25  20 SW13G24   29.62S
RIFLE          CLOUDY    67  22  18 SW18G28   29.65F
MONTROSE       CLOUDY    64  24  21 S13G21    29.74S
CORTEZ         CLEAR     61  27  27 SW16      29.84S
PAGE, AZ       CLEAR     64   9  11 W8        29.76R
GRAND CANYON   CLEAR     46  17  31 SW7       29.92R
KINGMAN        CLEAR     52   0  12 S13       29.81F
FLAGSTAFF      CLEAR     51  26  37 W8        29.93S

$$

REGIONAL REPORTS    NEVADA/IDAHO/WYOMING

CITY           SKY/WX    TMP DP  RH WIND       PRES   REMARKS
LAS VEGAS, NV  PTCLDY    68  -6   5 W10       29.75R
ELY            MOCLDY    30  19  63 NW6       29.96R WCI  24
ELKO           PTCLDY    32  29  88 S5        29.96R WCI  27
POCATELLO, ID  CLOUDY    38  34  85 SW22G33   29.82R WCI  27
BURLEY         FLURRIES  37  33  85 W25G36    29.85R WCI  25
EVANSTON, WY   CLOUDY    32  30  92 SW15      29.82F WCI  22
ROCK SPRINGS   CLOUDY    37  29  72 W20G29    29.74F WCI  27

$$



USA.gov is the U.S. government's official web portal to all federal, state and local government web resources and services.